Location: Anuling
(14.1239°N, 120.8922°E)
Time: 05:25:38
(UTC+00:00)

Cosmos 1953 - Pass Details

Date: 14 January 2026
Orbit: 474 x 489 km, 82.5° (Epoch: 10 February)

Event Time Altitude Azimuth Distance (km) Brightness Sun altitude
Rises 10:15:20 0° 357° (N) 2,561 5.6 -7.3°
Reaches altitude 10° 10:17:27 10° 359° (N) 1,679 4.6 -7.8°
Maximum altitude 10:21:07 79° 85° (E) 502 2.0 -8.6°
Drops below altitude 10° 10:24:46 10° 173° (S) 1,671 4.9 -9.5°
Sets 10:26:52 0° 174° (S) 2,548 5.9 -9.9°
